Snowfall_Accumulation
3.1 7.9 10.0 5.0 3.8 3.3 3.3 3.6 3.1 1.8 0.6 1.0 1.2 0.9 0.2 0.1 0.1 0.1 0.4 0.2 0.1 0.1 0.0 0.0 0.0 0.0 0.0 0.0 0.0 0.0 0.0 0.0 0.0 0.0 0.0 0.0 0.1 0.0 0.0 0.0 0.0 0.0 0.0 0.0
6.8 8.0 3.7 1.6 1.9 3.2 4.4 5.2 3.6 1.6 0.8 1.1 1.4 0.9 0.3 0.1 0.2 0.3 0.3 0.2 0.1 0.1 0.0 0.0 0.0 0.0 0.0 0.0 0.0 0.0 0.0 0.0 0.0 0.0 0.0 0.0 0.0 0.0 0.0 0.0 0.0 0.0 0.0 0.0
7.6 3.6 0.9 2.4 3.6 4.9 4.9 4.6 3.3 2.9 2.0 1.5 2.6 2.5 0.8 0.4 0.3 0.5 0.5 0.4 0.2 0.2 0.1 0.1 0.1 0.1 0.1 0.0 0.0 0.0 0.0 0.0 0.0 0.0 0.0 0.0 0.0 0.0 0.0 0.0 0.0 0.0 0.0 0.0
4.2 1.3 1.6 3.3 4.0 4.7 6.4 2.2 2.1 2.9 5.1 6.3 5.1 8.2 1.9 0.7 0.5 0.5 0.5 0.6 0.3 0.3 0.1 0.1 0.1 0.1 0.1 0.1 0.1 0.0 0.0 0.0 0.0 0.0 0.0 0.0 0.0 0.0 0.0 0.0 0.0 0.0 0.0 0.0
5.0 1.6 2.3 4.3 3.0 2.8 3.4 1.3 2.0 3.5 6.0 8.5 4.7 9.0 3.2 1.3 1.7 1.4 0.6 0.6 0.7 0.5 0.3 0.3 0.2 0.1 0.1 0.1 0.1 0.1 0.0 0.0 0.0 0.0 0.0 0.0 0.0 0.0 0.0 0.0 0.0 0.0 0.0 0.0
3.1 0.7 1.4 2.3 1.0 1.5 1.6 2.3 3.3 4.7 9.5 18.4 7.0 7.9 5.2 3.5 3.8 2.5 1.0 0.6 0.6 0.6 0.4 0.4 0.4 0.2 0.1 0.1 0.1 0.1 0.0 0.0 0.0 0.0 0.0 0.0 0.0 0.0 0.0 0.0 0.0 0.0 0.0 0.0
6.3 2.9 1.5 1.2 3.2 2.7 4.1 10.8 26.2 29.4 28.8 16.2 3.1 5.2 5.4 3.6 3.2 3.1 1.9 1.3 0.6 0.5 0.5 0.5 0.4 0.3 0.2 0.2 0.1 0.1 0.1 0.1 0.1 0.0 0.0 0.0 0.0 0.0 0.0 0.0 0.0 0.1 0.1 0.1
10.9 10.0 2.6 1.3 2.9 5.7 5.1 8.1 17.7 20.3 15.2 7.1 3.5 5.0 4.2 2.7 2.1 2.2 1.7 1.2 0.7 0.3 0.4 0.3 0.4 0.5 0.6 0.2 0.1 0.1 0.1 0.2 0.2 0.0 0.0 0.0 0.0 0.0 0.0 0.0 0.1 0.1 0.1 0.0
11.2 8.7 2.1 0.9 0.9 2.7 6.8 7.5 5.5 11.0 9.1 6.3 5.3 3.9 3.1 1.8 1.9 1.9 2.1 1.3 1.1 0.9 0.3 0.4 0.4 0.6 0.3 0.2 0.2 0.1 0.1 0.1 0.3 0.3 0.1 0.0 0.0 0.0 0.0 0.0 0.1 0.1 0.1 0.0
11.0 10.1 3.5 1.5 1.5 2.0 4.0 5.4 9.2 15.9 14.6 8.5 5.1 4.1 4.6 3.5 2.6 2.2 2.2 2.6 1.2 1.0 0.4 0.5 0.6 0.5 0.2 0.2 0.1 0.1 0.0 0.0 0.1 0.2 0.0 0.0 0.1 0.0 0.0 0.2 0.1 0.1 0.0 0.1
9.1 11.7 8.0 4.4 6.3 6.7 6.2 8.7 11.9 13.5 11.7 10.8 7.2 5.4 4.5 3.7 2.8 2.6 2.2 2.2 1.6 1.6 1.1 1.0 0.8 0.6 0.1 0.2 0.1 0.1 0.1 0.1 0.1 0.1 0.0 0.1 0.0 0.1 0.1 0.2 0.2 0.2 0.2 0.1
9.1 12.4 11.5 6.3 2.8 2.9 5.0 8.3 10.6 16.1 12.8 8.2 8.1 6.3 3.2 2.5 2.2 2.2 2.2 2.2 2.1 1.6 1.3 1.1 1.2 0.7 0.2 0.2 0.2 0.3 0.1 0.1 0.1 0.1 0.0 0.0 0.1 0.2 0.1 0.3 0.4 0.2 0.2 0.3
13.2 16.9 17.5 10.9 6.4 4.4 6.7 7.4 8.6 10.2 11.6 9.5 8.6 6.2 2.6 1.9 1.8 1.7 1.7 1.7 1.8 1.6 1.2 1.1 1.2 0.5 0.6 0.6 0.5 0.6 0.4 0.4 0.2 0.1 0.1 0.1 0.2 0.1 0.3 0.2 0.2 0.3 0.3 0.3
12.6 18.5 14.2 12.8 9.8 9.4 9.5 7.2 7.0 10.7 14.7 9.8 6.4 5.2 3.7 3.1 2.8 2.2 1.8 1.9 2.2 2.0 1.8 1.6 1.4 1.2 1.1 1.0 0.9 0.9 0.8 0.7 0.7 0.7 0.3 0.5 0.6 0.5 0.6 0.4 0.6 1.1 1.7 1.8
13.1 16.1 7.5 4.4 4.2 5.0 6.2 5.6 5.7 7.9 8.4 8.3 5.1 4.5 4.8 3.9 3.5 3.1 2.5 2.0 2.2 2.6 2.7 2.4 1.7 1.5 1.4 1.3 1.0 1.0 1.1 1.2 1.1 1.3 1.1 0.9 1.0 1.5 1.0 0.8 1.0 1.3 2.0 2.7
13.4 14.7 7.4 4.4 2.7 3.4 4.7 3.7 3.5 4.2 4.5 5.2 4.5 5.1 4.0 3.1 2.7 2.6 2.5 2.5 2.7 3.2 3.4 3.1 2.3 1.9 1.9 1.9 1.8 1.4 1.6 1.5 1.5 1.5 1.4 1.8 1.7 2.2 2.2 1.2 1.1 1.4 2.0 2.6
13.0 13.3 12.0 7.9 3.4 5.2 7.7 4.9 4.0 4.3 4.3 4.9 5.8 5.7 4.3 3.6 3.3 3.2 2.9 2.9 2.9 3.1 3.3 3.1 2.9 2.8 2.5 2.2 2.5 2.8 1.9 1.4 1.4 1.7 1.8 2.3 2.6 2.5 2.5 2.3 2.1 2.5 3.1 3.0
10.6 12.3 15.4 11.8 8.7 12.4 6.2 3.7 3.5 3.8 4.7 4.6 5.1 5.0 4.3 4.1 4.0 3.5 3.2 3.3 3.2 3.1 2.9 3.1 3.2 3.0 2.6 2.3 2.6 2.1 2.2 1.8 1.5 1.6 2.1 2.2 2.5 3.1 2.7 2.3 2.3 2.7 2.2 2.1
5.4 11.6 17.5 15.4 11.8 6.9 3.6 3.2 4.1 4.9 5.9 4.9 4.7 4.4 3.7 3.4 3.1 3.5 2.9 2.8 3.2 3.0 2.7 2.8 2.6 2.8 2.3 2.1 2.5 2.3 2.0 1.9 1.7 1.9 1.9 2.3 2.3 2.8 2.5 2.3 2.1 1.9 1.7 1.7
5.3 10.0 17.9 16.4 12.9 7.1 4.0 2.4 2.7 4.0 6.9 4.5 4.0 4.4 3.9 3.7 5.5 5.3 3.7 3.2 2.7 2.3 2.2 2.2 2.3 2.3 1.9 1.6 1.9 1.7 1.8 1.8 1.9 2.0 2.2 1.9 1.9 2.2 1.8 1.8 1.4 1.2 0.9 2.0
10.0 14.8 17.0 13.6 11.0 5.1 3.4 2.4 2.0 6.9 8.9 4.3 4.0 4.4 4.3 5.2 6.5 5.5 4.2 3.4 2.8 2.6 2.4 2.3 2.1 2.3 2.3 1.7 1.4 1.5 1.2 1.7 1.8 1.7 1.7 1.4 1.4 1.4 1.1 1.4 1.2 1.2 1.6 1.7
7.1 10.1 10.8 10.2 11.4 6.2 3.0 3.3 5.9 7.2 3.7 3.6 3.9 3.9 4.3 4.2 3.7 3.6 3.6 3.2 2.6 2.6 2.2 2.1 2.1 2.4 2.3 1.9 1.7 1.5 1.4 1.5 1.3 1.8 2.0 1.6 1.5 1.4 1.3 2.0 1.8 1.5 1.7 1.8
5.2 6.7 7.2 7.3 6.3 4.7 3.6 4.1 4.2 3.2 3.2 3.1 3.4 3.6 3.8 3.9 3.7 3.6 3.2 3.0 2.7 2.3 2.1 2.0 2.3 2.5 2.1 1.9 1.7 1.9 1.5 1.5 1.6 1.7 1.6 1.5 1.3 1.4 1.5 1.9 2.3 2.0 2.2 2.8
4.0 3.6 4.8 4.8 3.9 3.4 3.1 3.1 2.9 2.7 3.0 2.9 3.1 3.6 3.5 3.9 3.7 3.3 3.1 2.8 2.6 2.5 1.9 2.0 2.1 2.5 2.6 2.4 2.4 2.1 2.0 1.9 2.0 2.0 1.4 1.1 1.2 1.2 1.3 1.5 2.2 2.9 3.1 4.3
3.5 3.3 4.4 4.2 3.0 2.6 2.3 2.4 2.7 2.9 2.6 2.6 2.7 3.1 3.3 3.3 3.3 3.2 3.1 3.0 3.0 2.5 2.1 1.8 2.1 2.4 2.7 2.4 2.3 2.2 2.7 2.7 2.6 1.9 1.7 1.4 1.2 1.2 1.4 1.4 1.8 2.8 3.1 5.1
2.7 3.4 4.5 4.1 2.6 3.1 2.7 2.1 2.1 2.6 2.7 2.5 2.6 2.8 2.6 2.7 3.1 2.9 2.8 2.6 2.7 2.4 2.2 2.0 2.4 2.6 2.5 2.4 2.6 2.6 3.0 3.3 3.6 2.7 2.1 1.9 1.9 1.4 1.4 1.6 1.9 1.6 2.3 2.6